Platteville, WI

10:22 PM CDT on May 25, 2018 (GMT -0500)
Platteville Municipal

Weather History for KPVB - April, 2013

Change the Weather History Date:

Tuesday, April 23, 2013

  Actual Average (KDBQ) Record (KDBQ)
Temperature  
Mean Temperature 43 °F -  
Max Temperature 51 °F 59 °F 85 °F (1925)
Min Temperature 35 °F 40 °F 22 °F (1910)
Degree Days  
Heating Degree Days 22    
Moisture  
Dew Point 34 °F    
Average Humidity 77    
Maximum Humidity 87    
Minimum Humidity 65    
Precipitation  
Precipitation 0.00 in - - ()
Sea Level Pressure  
Sea Level Pressure 29.99 in    
Wind  
Wind Speed 10 mph (NW)    
Max Wind Speed 20 mph    
Max Gust Speed 25 mph    
Visibility 10 miles    
Events      
Averages and records for this station are not official NWS values.
T = Trace of Precipitation, MM = Missing Value Source: NWS Daily Summary

Daily Weather History Graph

Daily Weather History Graph

Search for Another Location

Airport or City:

Astronomy

Apr. 23, 2013 Rise Set
Actual Time 6:07 AM CDT 7:53 PM CDT
Civil Twilight 5:37 AM CDT 8:23 PM CDT
Nautical Twilight 5:00 AM CDT 9:00 PM CDT
Astronomical Twilight 4:21 AM CDT 9:39 PM CDT
Moon 5:46 PM CDT (4/23) 4:38 AM CDT (4/23)
Length of Visible Light 14h 46m
Length of Day
13h 45m
Waxing Gibbous, 94% of the Moon is Illuminated
Apr 23
Waxing Gibbous
Apr 25
Full
May 2
Last Quarter
May 9
New
May 17
First Quarter

Hourly Weather History & Observations

Time (CDT) Temp. Windchill Dew Point Humidity Pressure Visibility Wind Dir Wind Speed Gust Speed Precip Events Conditions
12:15 AM 51.8 °F - 44.6 °F 76% 30.01 in 10.0 mi SW 6.9 mph - N/A   Overcast
12:35 AM 50.0 °F - 46.4 °F 87% 30.00 in 10.0 mi SSW 4.6 mph - N/A   Overcast
12:55 AM 50.0 °F - 44.6 °F 82% 29.99 in 10.0 mi South 4.6 mph - N/A   Overcast
1:15 AM 50.0 °F - 44.6 °F 82% 29.98 in 10.0 mi South 6.9 mph - N/A   Overcast
1:35 AM 50.0 °F - 44.6 °F 82% 29.96 in 10.0 mi South 6.9 mph - N/A   Scattered Clouds
1:55 AM 48.2 °F - 44.6 °F 87% 29.95 in 10.0 mi SSE 4.6 mph - N/A   Mostly Cloudy
2:15 AM 48.2 °F - 44.6 °F 87% 29.96 in 10.0 mi South 4.6 mph - N/A   Overcast
2:35 AM 50.0 °F - 44.6 °F 82% 29.96 in 10.0 mi South 5.8 mph - N/A   Overcast
2:55 AM 50.0 °F - 44.6 °F 82% 29.96 in 10.0 mi SSW 6.9 mph - N/A   Overcast
3:15 AM 50.0 °F - 44.6 °F 82% 29.95 in 10.0 mi SSW 6.9 mph - N/A   Overcast
3:35 AM 50.0 °F - 44.6 °F 82% 29.94 in 10.0 mi SSW 5.8 mph - N/A   Overcast
3:55 AM 50.0 °F - 46.4 °F 87% 29.95 in 10.0 mi SW 10.4 mph - N/A   Overcast
4:15 AM 50.0 °F - 44.6 °F 82% 29.94 in 10.0 mi WSW 10.4 mph - N/A   Overcast
4:35 AM 50.0 °F - 44.6 °F 82% 29.93 in 10.0 mi WSW 11.5 mph - N/A   Overcast
4:55 AM 44.6 °F 37.8 °F 41.0 °F 87% 29.95 in 10.0 mi West 15.0 mph - N/A   Overcast
5:15 AM 41.0 °F 33.1 °F 37.4 °F 87% 29.97 in 10.0 mi West 15.0 mph 23.0 mph N/A   Overcast
5:35 AM 41.0 °F 33.1 °F 35.6 °F 81% 29.99 in 10.0 mi West 15.0 mph 23.0 mph N/A   Overcast
5:55 AM 39.2 °F 32.0 °F 35.6 °F 87% 29.99 in 10.0 mi WNW 11.5 mph - N/A   Overcast
6:15 AM 37.4 °F 28.5 °F 33.8 °F 87% 29.99 in 10.0 mi WNW 15.0 mph 20.7 mph N/A   Overcast
6:35 AM 37.4 °F 29.3 °F 33.8 °F 87% 29.98 in 10.0 mi WNW 12.7 mph - N/A   Overcast
6:55 AM 37.4 °F 29.8 °F 33.8 °F 87% 29.99 in 10.0 mi WNW 11.5 mph - N/A   Overcast
7:15 AM 37.4 °F 30.3 °F 33.8 °F 87% 30.00 in 10.0 mi WNW 10.4 mph - N/A   Overcast
7:35 AM 35.6 °F 26.2 °F 32.0 °F 87% 30.00 in 10.0 mi WNW 15.0 mph - N/A   Overcast
7:55 AM 35.6 °F 27.1 °F 32.0 °F 87% 30.01 in 10.0 mi NW 12.7 mph 18.4 mph N/A   Overcast
8:15 AM 35.6 °F 25.5 °F 32.0 °F 87% 29.99 in 10.0 mi NW 17.3 mph 21.9 mph N/A   Overcast
8:35 AM 35.6 °F 26.2 °F 32.0 °F 87% 29.99 in 10.0 mi NW 15.0 mph 23.0 mph N/A   Overcast
8:55 AM 35.6 °F 25.9 °F 32.0 °F 87% 29.99 in 10.0 mi NW 16.1 mph 23.0 mph N/A   Overcast
9:15 AM 37.4 °F 27.2 °F 32.0 °F 81% 30.00 in 10.0 mi NW 19.6 mph 25.3 mph N/A   Overcast
9:35 AM 37.4 °F 27.8 °F 32.0 °F 81% 30.01 in 10.0 mi NW 17.3 mph - N/A   Overcast
9:55 AM 37.4 °F 28.9 °F 32.0 °F 81% 30.01 in 10.0 mi NW 13.8 mph 18.4 mph N/A   Overcast
10:15 AM 37.4 °F 27.5 °F 32.0 °F 81% 30.01 in 10.0 mi NNW 18.4 mph 23.0 mph N/A   Overcast
10:35 AM 37.4 °F 28.5 °F 32.0 °F 81% 30.01 in 10.0 mi NNW 15.0 mph - N/A   Overcast
10:55 AM 37.4 °F 27.8 °F 32.0 °F 81% 30.01 in 10.0 mi NNW 17.3 mph 21.9 mph N/A   Overcast
11:15 AM 37.4 °F 28.2 °F 32.0 °F 81% 30.02 in 10.0 mi NNW 16.1 mph 19.6 mph N/A   Overcast
11:35 AM 37.4 °F 28.9 °F 32.0 °F 81% 30.02 in 10.0 mi NNW 13.8 mph 17.3 mph N/A   Overcast
11:55 AM 37.4 °F 28.9 °F 32.0 °F 81% 30.01 in 10.0 mi NNW 13.8 mph 19.6 mph N/A   Overcast
12:15 PM 37.4 °F 28.5 °F 30.2 °F 75% 30.01 in 10.0 mi NNW 15.0 mph - N/A   Overcast
12:35 PM 37.4 °F 29.8 °F 32.0 °F 81% 30.01 in 10.0 mi NW 11.5 mph - N/A   Overcast
12:55 PM 37.4 °F 29.8 °F 32.0 °F 81% 30.00 in 10.0 mi NW 11.5 mph - N/A   Overcast
1:15 PM 37.4 °F 28.9 °F 32.0 °F 81% 30.01 in 10.0 mi NW 13.8 mph 17.3 mph N/A   Overcast
1:35 PM 37.4 °F 29.8 °F 32.0 °F 81% 30.00 in 10.0 mi NW 11.5 mph - N/A   Overcast
1:55 PM 37.4 °F 28.5 °F 30.2 °F 75% 30.00 in 10.0 mi NNW 15.0 mph - N/A   Overcast
2:15 PM 39.2 °F 31.6 °F 32.0 °F 75% 30.00 in 10.0 mi NNW 12.7 mph 17.3 mph N/A   Overcast
2:35 PM 41.0 °F 34.3 °F 32.0 °F 70% 29.99 in 10.0 mi NNW 11.5 mph - N/A   Overcast
2:55 PM 41.0 °F 33.9 °F 32.0 °F 70% 29.99 in 10.0 mi NNW 12.7 mph 16.1 mph N/A   Overcast
3:15 PM 41.0 °F 34.7 °F 30.2 °F 65% 30.00 in 10.0 mi NW 10.4 mph 19.6 mph N/A   Overcast
3:35 PM 41.0 °F 33.5 °F 30.2 °F 65% 30.00 in 10.0 mi NW 13.8 mph - N/A   Overcast
3:55 PM 39.2 °F 31.2 °F 30.2 °F 70% 29.99 in 10.0 mi NW 13.8 mph - N/A   Overcast
4:15 PM 39.2 °F 30.5 °F 30.2 °F 70% 29.99 in 10.0 mi NNW 16.1 mph - N/A   Overcast
4:35 PM 41.0 °F 33.1 °F 30.2 °F 65% 29.98 in 10.0 mi NNW 15.0 mph 18.4 mph N/A   Overcast
4:55 PM 41.0 °F 33.9 °F 30.2 °F 65% 29.98 in 10.0 mi NNW 12.7 mph 19.6 mph N/A   Overcast
5:15 PM 41.0 °F 33.9 °F 30.2 °F 65% 29.98 in 10.0 mi NNW 12.7 mph - N/A   Overcast
5:35 PM 41.0 °F 33.1 °F 30.2 °F 65% 29.98 in 10.0 mi NW 15.0 mph 20.7 mph N/A   Overcast
5:55 PM 41.0 °F 33.9 °F 30.2 °F 65% 29.98 in 10.0 mi NNW 12.7 mph 17.3 mph N/A   Overcast
6:15 PM 41.0 °F 33.9 °F 30.2 °F 65% 29.99 in 10.0 mi NNW 12.7 mph 20.7 mph N/A   Overcast
6:35 PM 41.0 °F 33.5 °F 30.2 °F 65% 29.99 in 10.0 mi NNW 13.8 mph 17.3 mph N/A   Overcast
6:55 PM 41.0 °F 33.9 °F 30.2 °F 65% 29.99 in 10.0 mi NNW 12.7 mph 17.3 mph N/A   Overcast
7:15 PM 39.2 °F 32.5 °F 30.2 °F 70% 29.99 in 10.0 mi NNW 10.4 mph - N/A   Overcast
7:35 PM 39.2 °F 32.0 °F 30.2 °F 70% 30.00 in 10.0 mi NNW 11.5 mph 16.1 mph N/A   Overcast
7:55 PM 39.2 °F 33.0 °F 30.2 °F 70% 29.99 in 10.0 mi NNW 9.2 mph - N/A   Overcast
8:15 PM 37.4 °F 31.4 °F 30.2 °F 75% 30.00 in 10.0 mi NW 8.1 mph - N/A   Overcast
8:35 PM 37.4 °F 31.4 °F 30.2 °F 75% 30.01 in 10.0 mi NNW 8.1 mph - N/A   Overcast
8:55 PM 37.4 °F 29.8 °F 30.2 °F 75% 30.01 in 10.0 mi NW 11.5 mph - N/A   Overcast
9:15 PM 37.4 °F 30.3 °F 30.2 °F 75% 30.02 in 10.0 mi NW 10.4 mph - N/A   Overcast
9:35 PM 37.4 °F 30.3 °F 28.4 °F 70% 30.02 in 10.0 mi NNW 10.4 mph - N/A   Overcast
9:55 PM 37.4 °F 30.8 °F 30.2 °F 75% 30.02 in 10.0 mi NNW 9.2 mph - N/A   Overcast
10:15 PM 37.4 °F 29.8 °F 28.4 °F 70% 30.02 in 10.0 mi NNW 11.5 mph 16.1 mph N/A   Overcast
10:35 PM 37.4 °F 31.4 °F 28.4 °F 70% 30.02 in 10.0 mi NNW 8.1 mph - N/A   Overcast
10:55 PM 37.4 °F 30.8 °F 28.4 °F 70% 30.02 in 10.0 mi NNW 9.2 mph - N/A   Overcast
11:15 PM 37.4 °F 30.8 °F 28.4 °F 70% 30.02 in 10.0 mi NNW 9.2 mph - N/A   Overcast
11:35 PM 37.4 °F 31.4 °F 28.4 °F 70% 30.02 in 10.0 mi NNW 8.1 mph - N/A   Overcast
11:55 PM 37.4 °F 30.8 °F 26.6 °F 65% 30.02 in 10.0 mi NNW 9.2 mph - N/A   Overcast